TimeEST,TemperatureF,Dew PointF,Humidity,Sea Level PressureIn,VisibilityMPH,Wind Direction,Wind SpeedMPH,Gust SpeedMPH,PrecipitationIn,Events,Conditions,WindDirDegrees,DateUTC
12:51 AM,46.0,27.0,47,29.87,10.0,South,6.9,-,N/A,,Mostly Cloudy,180,2014-02-19 05:51:00
1:51 AM,50.0,26.1,39,29.81,10.0,South,8.1,-,N/A,,Scattered Clouds,190,2014-02-19 06:51:00
2:51 AM,48.9,28.0,44,29.78,10.0,SSW,8.1,-,N/A,,Scattered Clouds,200,2014-02-19 07:51:00
3:51 AM,48.0,37.0,66,29.76,9.0,SW,3.5,-,0.06,Rain,Light Rain,230,2014-02-19 08:51:00
4:51 AM,46.9,39.9,77,29.77,10.0,SSW,8.1,-,0.01,Rain,Light Rain,210,2014-02-19 09:51:00
5:31 AM,48.0,45.0,89,29.77,6.0,SSW,5.8,-,0.05,Rain,Light Rain,200,2014-02-19 10:31:00
5:40 AM,48.0,45.0,89,29.77,10.0,SSW,6.9,-,0.05,Rain,Light Rain,210,2014-02-19 10:40:00
5:51 AM,48.0,45.0,89,29.77,10.0,SSW,5.8,-,0.05,,Mostly Cloudy,210,2014-02-19 10:51:00
6:51 AM,48.0,46.0,93,29.77,9.0,SSW,8.1,-,N/A,,Clear,200,2014-02-19 11:51:00
7:51 AM,48.9,46.9,93,29.78,7.0,SSW,6.9,-,N/A,,Scattered Clouds,200,2014-02-19 12:51:00
8:51 AM,51.1,48.9,92,29.81,8.0,SW,8.1,-,N/A,,Mostly Cloudy,230,2014-02-19 13:51:00
9:51 AM,55.9,50.0,80,29.83,10.0,WSW,10.4,19.6,N/A,,Scattered Clouds,250,2014-02-19 14:51:00
10:00 AM,55.9,50.0,80,29.83,10.0,WSW,12.7,-,N/A,,Mostly Cloudy,240,2014-02-19 15:00:00
10:29 AM,57.0,48.0,72,29.84,10.0,WSW,13.8,24.2,N/A,,Mostly Cloudy,250,2014-02-19 15:29:00
10:51 AM,57.0,46.9,69,29.85,10.0,WSW,12.7,26.5,N/A,,Mostly Cloudy,250,2014-02-19 15:51:00
11:51 AM,59.0,43.0,55,29.89,10.0,West,16.1,-,N/A,,Mostly Cloudy,260,2014-02-19 16:51:00
12:51 PM,59.0,33.1,38,29.92,10.0,West,18.4,32.2,N/A,,Partly Cloudy,270,2014-02-19 17:51:00
1:51 PM,60.1,28.9,31,29.93,10.0,West,13.8,28.8,N/A,,Clear,280,2014-02-19 18:51:00
2:51 PM,59.0,28.0,31,29.95,10.0,West,13.8,26.5,N/A,,Clear,280,2014-02-19 19:51:00
3:51 PM,59.0,27.0,29,29.98,10.0,West,10.4,23.0,N/A,,Clear,280,2014-02-19 20:51:00
4:51 PM,57.9,28.0,32,30.01,10.0,WNW,9.2,-,N/A,,Clear,300,2014-02-19 21:51:00
5:51 PM,54.0,28.9,38,30.06,10.0,NNW,9.2,-,N/A,,Clear,340,2014-02-19 22:51:00
6:51 PM,50.0,27.0,41,30.09,10.0,North,5.8,-,N/A,,Clear,360,2014-02-19 23:51:00
7:51 PM,48.0,26.1,42,30.10,10.0,NNE,3.5,-,N/A,,Clear,20,2014-02-20 00:51:00
8:51 PM,46.9,27.0,46,30.10,10.0,ENE,5.8,-,N/A,,Clear,60,2014-02-20 01:51:00
9:51 PM,43.0,28.9,58,30.09,10.0,ENE,8.1,-,N/A,,Clear,70,2014-02-20 02:51:00
10:51 PM,43.0,28.0,56,30.09,10.0,East,5.8,-,N/A,,Clear,100,2014-02-20 03:51:00
11:51 PM,43.0,28.0,56,30.09,10.0,East,4.6,-,N/A,,Clear,80,2014-02-20 04:51:00